Date,TemperatureHighF,TemperatureAvgF,TemperatureLowF,DewpointHighF,DewpointAvgF,DewpointLowF,HumidityHigh,HumidityAvg,HumidityLow,PressureMaxIn,PressureMinIn,WindSpeedMaxMPH,WindSpeedAvgMPH,GustSpeedMaxMPH,PrecipitationSumIn
2013-2-1,25.3,24.0,22.8,8.5,7.6,6.6,52,49,47,21.73,21.67,18,6,20,0.00
2013-2-4,29.3,27.6,26.4,7.8,6.3,4.1,42,40,35,21.67,21.62,21,6,21,0.00
2013-2-5,49.1,33.2,25.7,23.3,14.1,6.9,63,46,36,21.73,21.62,17,2,17,0.00
2013-2-6,39.6,30.8,20.8,25.0,14.9,10.1,95,53,39,21.73,21.59,10,2,14,0.00
2013-2-7,41.2,24.8,14.5,10.9,2.2,-5.0,63,39,21,21.73,21.67,9,2,10,0.00
2013-2-8,44.2,28.6,15.3,14.1,4.7,-6.5,57,36,28,21.67,21.47,11,3,14,0.00
2013-2-9,27.3,19.8,13.6,21.1,11.3,2.1,91,70,45,21.47,21.23,13,2,15,0.00
2013-2-10,20.5,13.2,6.1,9.5,2.9,-0.6,75,63,45,21.59,21.26,13,2,13,0.00
2013-2-11,23.0,8.3,-4.5,8.9,-0.4,-10.7,77,68,48,21.62,21.50,6,0,6,0.00
2013-2-12,28.4,14.1,3.7,5.2,-1.8,-6.4,68,51,33,21.64,21.59,13,4,19,0.00
2013-2-13,26.4,18.2,14.4,8.8,3.3,-0.7,57,51,44,21.67,21.59,19,6,20,0.00
2013-2-14,30.0,18.4,10.0,13.7,6.7,2.9,85,61,41,21.76,21.62,15,2,20,0.00
2013-2-15,25.2,17.5,12.7,9.8,5.3,-0.0,78,59,43,21.82,21.73,17,3,18,0.00
2013-2-16,37.6,27.6,18.7,14.4,7.6,3.7,55,42,34,21.82,21.67,22,6,22,0.00
2013-2-17,45.9,31.8,17.8,11.3,4.3,-3.3,52,32,22,21.67,21.41,26,4,26,0.00
2013-2-18,21.4,13.9,4.1,2.2,-2.3,-12.5,55,48,40,21.64,21.44,14,3,15,0.00
2013-2-19,42.4,21.9,9.3,7.4,-1.2,-12.9,55,37,21,21.64,21.44,10,1,10,0.00
2013-2-20,36.5,20.2,12.6,13.9,7.0,-0.5,90,59,32,21.44,21.32,11,1,11,0.00
2013-2-21,32.4,14.5,3.9,12.8,7.8,-1.8,90,75,44,21.47,21.29,6,0,6,0.00
2013-2-22,25.7,16.2,7.5,10.0,2.0,-6.8,77,54,42,21.53,21.47,10,2,10,0.00
2013-2-23,41.7,26.9,14.5,19.6,10.7,-2.0,91,53,34,21.47,21.35,13,3,15,0.04
2013-2-24,17.8,12.8,-1.8,14.6,8.8,-6.8,92,84,72,21.64,21.35,11,1,11,0.00
2013-2-25,33.6,16.8,-2.6,11.3,2.3,-7.4,79,55,35,21.62,21.47,13,2,13,0.09
2013-2-26,22.5,17.3,9.7,12.7,7.3,2.4,85,66,44,21.67,21.44,9,1,9,0.00
2013-2-27,24.3,12.5,1.2,9.6,-1.7,-11.7,85,56,36,21.76,21.67,16,3,16,0.00
2013-2-28,24.4,16.6,7.7,8.9,-0.2,-11.7,65,47,40,21.82,21.73,17,5,17,0.00